Wind_Speed
43 43 43 43 43 43 42 42 42 42 41 41 41 41 41 42 42 42 42 43 43 44 45 46 46 47 48 49 50 51 51 51 49 48 48 48 49 49 49 49 49 49 49
42 43 44 44 43 43 43 43 43 42 42 42 41 42 42 43 43 43 43 43 44 44 45 46 47 48 49 49 49 50 51 50 49 48 47 48 48 48 48 48 49 49 49
42 43 43 44 44 43 43 43 43 42 42 42 43 43 43 43 43 43 43 44 45 45 46 47 48 48 48 49 50 50 50 49 48 47 47 47 48 48 48 48 48 48 47
42 43 43 43 44 44 44 44 43 43 43 43 44 44 44 44 44 43 44 44 45 46 47 48 48 48 48 49 49 49 48 47 47 47 47 47 47 47 47 46 46 45 44
41 41 42 42 43 43 44 44 44 44 44 44 44 44 44 44 44 44 44 45 46 47 47 48 48 48 48 48 48 48 46 46 46 46 46 47 46 46 46 45 44 43 42
41 41 41 41 42 42 42 43 44 45 45 45 45 45 44 44 44 44 44 45 46 47 47 47 47 47 47 47 46 46 45 45 45 45 45 45 45 45 45 44 43 42 41
40 40 41 41 41 41 42 43 43 44 44 45 45 44 43 44 44 44 45 46 46 46 46 45 45 46 47 46 44 44 44 44 44 44 44 45 45 45 45 44 42 41 39
39 39 40 40 40 41 41 42 43 43 43 43 44 43 43 44 44 44 45 45 46 45 44 44 44 45 45 44 43 43 43 43 43 44 44 44 44 44 43 42 39 37 35
38 39 39 39 40 40 41 41 42 42 42 42 42 42 43 43 44 44 45 45 44 44 44 44 45 45 44 44 43 42 43 43 43 43 42 42 42 41 40 38 36 33 30
38 38 39 39 39 40 41 41 41 41 42 42 42 42 42 42 43 44 44 44 43 43 43 44 45 45 44 43 41 41 41 41 41 42 40 40 39 38 36 34 32 30 28
38 38 39 39 40 40 41 40 40 40 41 41 40 40 41 41 42 42 43 43 43 43 43 44 45 44 42 41 41 40 40 40 39 38 38 37 36 34 32 31 30 29 27
37 38 39 39 39 40 40 39 39 39 39 39 39 40 40 41 41 42 42 42 42 42 43 44 43 42 40 40 39 39 38 37 37 36 35 34 33 31 30 30 29 28 26
38 38 38 38 38 39 39 39 38 38 38 39 39 40 40 40 40 41 40 41 41 42 43 42 41 40 39 38 37 37 37 36 35 34 33 32 31 30 29 29 28 27 26
38 38 38 38 39 39 39 38 38 38 39 39 39 39 39 39 39 39 39 40 41 41 41 40 39 38 37 36 36 35 35 34 33 32 31 30 29 29 28 27 26 25 25
35 36 37 37 37 37 37 37 37 37 37 38 38 38 38 38 38 38 39 40 39 39 39 38 37 36 34 34 34 33 32 31 30 29 28 28 27 26 26 25 24 23 23
34 34 35 36 36 36 36 36 36 37 37 37 37 37 37 37 37 37 37 37 37 37 36 35 34 33 32 30 30 29 28 27 26 26 26 26 25 23 23 23 23 22 22
34 34 34 35 36 36 36 36 36 37 37 37 37 37 37 36 36 35 34 34 34 33 32 32 30 28 28 28 27 26 25 25 25 25 25 24 23 22 23 23 22 22 21
34 34 34 34 35 35 35 35 35 35 35 35 35 35 34 34 33 32 32 32 31 30 29 28 27 26 26 26 25 24 23 23 23 23 23 22 22 22 22 21 20 19 18
33 33 34 33 33 33 33 33 33 33 33 33 32 32 32 31 31 31 30 30 29 28 28 27 26 25 25 25 23 22 22 22 22 21 21 21 21 21 20 18 18 17 16
33 33 33 33 32 31 31 31 31 32 32 32 31 31 30 29 29 29 29 28 27 27 26 26 25 24 24 23 22 21 21 21 21 20 20 19 19 18 17 16 16 15 14
32 32 32 31 31 31 31 30 31 31 31 30 30 29 29 29 29 29 28 26 26 26 26 25 24 23 23 22 21 21 21 20 19 18 18 18 17 16 16 14 14 13 12
31 30 30 30 30 31 31 31 31 30 30 29 29 29 29 29 28 27 26 25 25 25 24 24 23 22 21 20 20 19 19 18 18 17 17 16 16 15 14 12 11 11 9
29 29 29 29 28 28 29 30 30 30 30 29 28 28 28 28 26 26 25 25 24 24 23 22 20 19 18 18 18 17 16 16 15 14 14 13 13 12 11 9 8 7 6
28 28 28 27 27 27 27 28 28 28 28 28 28 27 27 26 25 24 24 23 22 21 20 19 18 18 17 16 15 14 14 13 11 10 10 10 9 8 7 6 5 4 4
26 27 26 26 26 26 26 26 26 25 25 25 25 25 24 23 23 22 21 20 19 18 18 17 17 16 15 14 13 12 10 9 8 7 7 6 6 6 4 3 3 3 4
24 25 25 25 24 25 25 25 24 24 23 23 22 22 21 21 20 20 19 18 17 17 16 16 15 14 13 12 11 10 9 8 7 6 5 5 4 3 2 1 2 3 4
Wind_Direction
244 245 247 249 251 253 254 257 258 261 264 267 270 272 275 278 280 282 285 286 288 290 292 294 296 298 299 301 302 303 304 305 305 305 306 306 306 307 307 308 308 307 307
246 247 248 249 251 253 255 257 259 261 264 266 269 272 276 278 280 282 284 286 288 290 292 295 297 298 299 301 302 303 304 304 305 306 306 306 307 308 308 309 309 308 308
247 248 248 250 251 253 254 256 259 261 264 267 269 272 275 278 280 282 284 286 288 290 293 295 297 298 299 300 302 303 304 304 305 306 307 307 308 308 309 309 309 309 309
247 248 249 250 252 253 254 256 259 261 264 267 270 272 275 277 279 282 284 286 288 291 293 296 297 297 298 300 302 303 303 304 304 306 307 308 308 308 309 310 310 310 310
247 248 249 250 252 254 256 257 259 262 265 268 270 272 274 277 279 281 283 285 288 291 294 296 297 297 298 300 301 302 303 303 304 306 307 308 308 309 310 310 311 311 311
249 249 250 251 253 255 256 259 261 263 265 268 270 272 274 276 278 280 282 284 288 291 293 295 296 297 298 300 301 302 303 304 304 306 307 308 309 310 311 311 311 310 310
249 250 251 253 254 256 257 259 261 264 266 268 269 271 273 276 278 280 283 284 287 290 292 294 295 297 299 300 300 301 303 304 305 306 307 308 309 309 310 310 311 311 311
249 250 252 254 255 257 258 260 262 265 267 268 270 271 273 276 278 280 283 284 286 288 290 292 295 297 299 299 298 299 302 303 304 306 308 309 310 311 311 312 312 313 313
249 250 252 254 256 257 259 261 263 264 265 268 270 272 274 276 278 280 281 284 286 287 290 292 294 296 297 297 297 299 301 303 304 306 307 309 311 313 313 313 313 314 315
249 251 252 254 256 257 258 260 262 264 266 268 270 272 274 277 278 280 282 283 285 286 289 291 294 295 296 296 296 298 300 302 304 305 307 309 311 313 314 314 313 313 314
249 251 252 255 258 258 259 260 262 264 266 268 270 273 275 277 279 280 282 282 283 286 288 291 293 294 293 294 296 298 299 301 303 305 306 309 311 313 314 315 316 315 315
251 253 254 256 258 259 260 261 262 264 266 268 271 273 275 277 279 281 282 282 283 285 288 289 291 292 291 292 295 297 299 301 303 305 307 309 310 312 313 314 315 315 316
253 255 255 256 258 260 261 262 263 264 266 269 271 273 276 278 280 281 281 283 284 285 286 288 290 290 289 290 292 294 297 300 303 305 306 308 310 312 313 314 314 314 316
254 255 256 257 258 260 262 264 265 266 267 269 272 274 276 278 279 280 281 282 283 284 285 286 288 288 288 289 292 294 297 299 301 303 305 307 309 312 314 314 314 314 317
254 255 256 257 260 261 263 265 266 267 269 271 273 274 275 277 278 279 280 281 282 283 285 286 286 286 286 288 291 294 296 297 300 302 304 306 308 311 313 314 314 315 317
254 255 256 258 259 261 263 265 268 269 269 271 273 274 275 276 278 279 280 281 283 285 285 286 287 287 286 286 290 292 294 298 300 301 303 306 307 309 311 312 313 314 316
254 256 257 258 260 261 263 265 267 269 270 271 273 274 274 275 277 279 280 281 284 285 286 286 285 285 285 287 288 290 293 295 297 300 303 305 306 308 311 312 312 314 316
256 257 259 260 261 261 262 264 266 268 270 272 273 273 274 275 276 277 280 281 283 284 285 286 283 282 283 286 287 289 291 293 297 300 302 304 306 308 311 312 313 316 318
255 257 259 260 261 262 264 265 266 267 269 271 272 272 273 273 274 277 279 280 281 281 283 284 282 281 283 284 285 287 290 293 296 299 301 304 306 309 312 312 313 316 318
256 257 258 259 260 262 264 266 267 268 269 269 269 270 270 272 274 276 278 279 279 280 282 283 281 280 281 282 281 283 288 292 295 297 300 304 306 309 312 313 314 315 319
256 257 259 260 261 263 264 267 268 268 269 267 267 268 270 272 274 276 277 277 278 279 280 280 278 277 278 280 280 283 286 289 292 295 299 302 305 309 311 312 313 317 321
256 257 258 259 261 263 265 267 269 269 268 267 268 269 271 272 273 274 274 275 277 278 279 278 275 275 276 277 277 280 283 286 291 294 299 302 304 308 311 312 314 319 324
255 256 258 259 261 264 266 268 268 268 266 265 267 269 270 271 271 272 272 274 275 276 275 274 271 270 272 273 275 277 279 284 290 295 300 303 308 312 316 318 320 324 330
253 256 258 259 261 264 267 268 268 267 265 266 267 269 270 269 268 268 270 271 273 272 271 269 266 266 268 269 270 273 276 281 285 293 298 303 312 320 323 326 333 344 354
254 256 258 260 263 266 267 268 267 266 266 266 268 268 266 264 264 265 267 268 268 268 268 265 261 261 261 262 263 267 270 275 283 292 300 309 317 324 330 344 7 25 35
255 257 259 261 264 267 267 266 264 264 265 266 266 265 263 262 262 261 261 262 263 263 263 259 255 253 253 254 256 258 258 265 274 282 292 301 307 310 325 25 63 65 63
Height
5713 5716 5719 5721 5724 5725 5727 5729 5730 5731 5731 5732 5732 5731 5730 5729 5727 5726 5724 5721 5718 5715 5711 5707 5703 5698 5693 5688 5682 5676 5669 5663 5658 5653 5645 5639 5632 5625 5618 5611 5605 5598 5592
5703 5706 5709 5711 5714 5715 5717 5719 5720 5721 5722 5722 5722 5721 5721 5719 5718 5716 5714 5711 5708 5705 5701 5697 5693 5688 5683 5677 5672 5666 5659 5653 5647 5642 5636 5629 5622 5615 5608 5601 5594 5587 5581
5693 5696 5698 5701 5703 5705 5707 5708 5710 5711 5712 5712 5712 5711 5710 5709 5707 5706 5703 5701 5698 5694 5691 5687 5682 5678 5673 5667 5661 5655 5649 5643 5637 5631 5625 5619 5612 5604 5598 5591 5584 5577 5570
5683 5686 5688 5691 5693 5695 5697 5698 5699 5700 5701 5701 5701 5701 5700 5698 5697 5695 5693 5690 5687 5684 5680 5676 5672 5667 5662 5657 5651 5645 5639 5633 5627 5621 5615 5609 5602 5595 5588 5581 5575 5568 5561
5673 5675 5678 5680 5682 5684 5686 5687 5689 5690 5690 5691 5690 5690 5689 5688 5686 5684 5682 5680 5677 5673 5669 5665 5661 5656 5651 5646 5640 5635 5629 5623 5618 5612 5605 5599 5592 5586 5579 5572 5565 5559 5552
5663 5665 5667 5670 5672 5674 5676 5677 5678 5679 5679 5679 5679 5679 5678 5677 5675 5673 5671 5669 5666 5663 5659 5655 5650 5645 5641 5635 5630 5624 5619 5613 5608 5602 5596 5589 5583 5576 5569 5562 5556 5550 5545
5653 5655 5657 5660 5662 5663 5665 5666 5667 5667 5668 5668 5668 5667 5667 5666 5664 5662 5660 5657 5655 5651 5648 5644 5639 5635 5630 5626 5620 5615 5610 5603 5598 5593 5587 5580 5574 5568 5561 5554 5547 5540 5535
5643 5645 5647 5650 5651 5653 5654 5655 5656 5656 5656 5657 5657 5656 5656 5654 5652 5651 5648 5646 5643 5640 5637 5633 5629 5625 5620 5616 5611 5606 5601 5595 5590 5584 5578 5571 5564 5558 5551 5545 5539 5533 5527
5633 5635 5637 5639 5641 5642 5643 5644 5645 5645 5645 5645 5645 5645 5644 5643 5641 5639 5637 5635 5632 5629 5626 5623 5619 5615 5610 5606 5602 5597 5592 5586 5580 5574 5569 5563 5556 5549 5543 5537 5532 5527 5522
5623 5625 5627 5629 5630 5632 5633 5633 5634 5634 5635 5634 5634 5633 5633 5631 5629 5628 5626 5624 5622 5619 5616 5612 5609 5604 5600 5596 5592 5588 5583 5578 5572 5567 5561 5555 5549 5543 5536 5531 5526 5521 5516
5613 5614 5616 5618 5619 5621 5622 5623 5623 5623 5624 5624 5623 5623 5622 5620 5618 5616 5615 5613 5611 5608 5605 5602 5598 5594 5590 5586 5582 5578 5574 5569 5564 5559 5554 5548 5542 5537 5531 5526 5520 5516 5511
5603 5605 5606 5607 5609 5610 5611 5612 5612 5613 5613 5613 5612 5611 5610 5609 5607 5605 5603 5601 5599 5597 5594 5591 5588 5584 5581 5577 5573 5569 5565 5561 5556 5552 5547 5542 5536 5531 5526 5521 5516 5512 5507
5593 5594 5595 5597 5598 5599 5600 5601 5602 5602 5602 5602 5602 5600 5599 5598 5596 5594 5592 5590 5588 5586 5583 5581 5577 5574 5571 5568 5564 5561 5557 5553 5549 5544 5540 5535 5530 5526 5521 5517 5512 5507 5503
5582 5584 5585 5586 5588 5589 5590 5591 5591 5591 5591 5591 5590 5589 5588 5587 5585 5584 5582 5580 5578 5575 5573 5570 5567 5564 5561 5559 5556 5553 5549 5545 5542 5538 5533 5529 5525 5520 5516 5512 5508 5504 5499
5572 5573 5575 5576 5577 5578 5579 5580 5580 5581 5580 5580 5580 5579 5578 5576 5575 5573 5571 5569 5567 5565 5562 5560 5557 5555 5552 5550 5547 5544 5542 5538 5535 5531 5527 5524 5520 5516 5512 5508 5504 5500 5496
5562 5564 5565 5566 5567 5568 5569 5569 5569 5570 5570 5569 5569 5568 5567 5566 5564 5563 5561 5559 5557 5555 5553 5551 5548 5546 5544 5542 5540 5537 5535 5532 5529 5525 5522 5518 5515 5511 5508 5504 5500 5496 5492
5553 5554 5555 5556 5557 5558 5559 5559 5559 5559 5559 5559 5558 5557 5557 5556 5554 5553 5551 5549 5548 5546 5544 5542 5540 5538 5537 5535 5533 5531 5528 5526 5523 5520 5517 5513 5510 5507 5503 5500 5496 5493 5489
5543 5544 5545 5546 5547 5548 5548 5549 5549 5549 5549 5548 5548 5547 5546 5546 5545 5543 5542 5541 5539 5537 5536 5534 5533 5531 5530 5528 5527 5525 5523 5520 5518 5515 5512 5509 5506 5503 5499 5496 5492 5489 5486
5534 5535 5536 5537 5537 5538 5538 5539 5539 5539 5539 5538 5538 5537 5537 5536 5536 5535 5533 5533 5531 5530 5528 5527 5525 5524 5523 5522 5520 5519 5517 5515 5513 5510 5507 5504 5502 5499 5495 5492 5489 5486 5483
5524 5525 5526 5527 5528 5528 5529 5529 5529 5529 5529 5529 5529 5528 5528 5528 5527 5526 5525 5524 5523 5522 5521 5519 5518 5517 5516 5515 5514 5513 5512 5510 5508 5506 5503 5500 5498 5495 5492 5489 5486 5484 5481
5514 5516 5517 5518 5518 5519 5520 5520 5520 5520 5520 5520 5520 5520 5519 5519 5518 5518 5517 5516 5516 5515 5514 5512 5511 5511 5510 5509 5509 5508 5507 5505 5503 5501 5499 5496 5494 5491 5488 5486 5484 5481 5479
5505 5506 5507 5508 5509 5510 5510 5511 5511 5511 5511 5511 5511 5511 5511 5510 5510 5509 5509 5508 5508 5507 5506 5506 5505 5505 5504 5504 5503 5502 5501 5500 5499 5497 5495 5492 5490 5488 5485 5483 5482 5479 5477
5496 5497 5498 5499 5500 5501 5501 5501 5501 5502 5502 5502 5502 5502 5502 5502 5501 5501 5501 5501 5501 5500 5499 5499 5499 5499 5498 5498 5498 5497 5496 5495 5494 5493 5491 5489 5487 5485 5483 5481 5480 5478 5477
5488 5489 5490 5491 5491 5492 5492 5492 5492 5492 5493 5493 5493 5493 5493 5493 5493 5493 5493 5493 5493 5493 5493 5493 5493 5493 5493 5493 5493 5492 5492 5491 5490 5489 5487 5486 5485 5483 5481 5480 5479 5477 5476
5479 5481 5481 5482 5483 5483 5483 5483 5483 5484 5484 5484 5484 5484 5484 5485 5485 5486 5486 5486 5487 5487 5487 5487 5487 5488 5488 5488 5488 5488 5488 5488 5487 5486 5485 5484 5483 5482 5481 5480 5478 5477 5476
5471 5472 5473 5474 5474 5475 5475 5475 5475 5476 5476 5476 5476 5476 5477 5477 5478 5479 5479 5480 5481 5481 5481 5482 5482 5483 5484 5484 5485 5485 5485 5485 5484 5484 5483 5482 5482 5481 5480 5480 5479 5478 5477